Theta_e
309 309 309 310 310 310 310 310 310 311 311 311 312 312 313 314 316 318 323 324 325 322 319 319 320 319 320 320 321 319 313 313 315 316 322 328 334 336 336 337 337 338 341 342 341
309 309 310 310 310 310 310 310 311 311 311 312 312 313 313 316 320 323 323 322 322 320 319 320 320 320 321 321 320 315 312 316 315 318 323 329 334 335 338 340 339 342 341 343 342
309 310 310 310 310 311 311 311 311 311 311 312 312 313 314 317 323 324 323 318 317 319 320 320 320 320 321 320 318 315 316 315 318 319 322 330 335 337 335 339 340 339 341 344 344
310 309 310 310 310 310 310 311 311 311 311 312 313 313 315 318 322 324 323 319 318 320 320 320 320 320 318 318 319 317 318 317 326 331 333 333 336 337 339 341 340 338 341 343 344
311 311 311 311 311 311 311 311 311 311 312 312 313 313 316 318 322 322 320 317 320 320 320 320 320 319 317 317 317 316 318 331 336 335 335 336 335 336 338 337 337 339 339 339 338
317 318 318 319 318 318 317 316 313 312 312 312 313 314 316 318 323 322 321 318 320 321 321 321 320 320 318 316 317 318 328 335 336 337 337 336 336 335 335 336 335 336 337 337 336
316 316 318 319 319 319 317 316 314 313 313 313 313 315 317 320 324 324 321 321 321 321 321 321 321 321 320 316 317 317 315 329 336 329 337 337 337 337 335 334 333 333 333 331 334
313 317 319 320 320 319 316 314 313 313 313 314 316 317 321 323 324 323 320 321 321 321 321 321 321 321 318 318 318 317 315 327 334 335 338 337 343 338 333 332 333 333 333 333 332
313 316 319 320 321 321 322 321 316 316 316 317 317 318 322 324 324 321 321 321 321 321 320 320 320 319 319 316 318 315 323 327 338 337 337 337 342 336 332 331 330 331 331 332 331
313 315 318 319 320 320 321 323 325 323 319 321 322 322 324 325 325 323 321 321 320 321 320 321 319 314 313 317 322 323 327 339 340 336 335 337 337 333 333 331 329 329 328 329 329
313 314 317 319 319 320 324 324 324 325 324 325 325 325 325 325 325 324 321 320 320 319 317 319 316 318 320 319 320 324 339 340 338 334 335 335 335 333 332 330 329 327 327 326 328
313 315 316 318 318 322 323 323 322 323 325 325 325 324 325 325 325 323 323 321 320 319 319 317 319 319 318 319 319 326 334 335 332 332 334 334 336 332 330 330 330 329 327 325 327
313 314 316 318 319 324 323 323 323 323 323 325 326 326 325 325 323 323 322 322 320 320 318 319 322 321 320 321 321 320 320 331 334 333 332 332 335 333 330 328 327 326 326 326 326
313 314 315 316 319 323 323 323 323 324 325 328 328 326 325 324 322 323 323 323 322 321 321 322 323 322 322 322 320 322 328 334 335 333 335 329 335 334 330 328 326 324 325 325 325
312 313 315 319 322 322 322 323 323 325 323 327 323 324 324 323 323 323 323 325 323 324 323 325 325 324 323 324 322 323 330 333 333 318 326 331 331 336 329 329 327 324 324 325 324
312 313 314 318 321 322 323 321 325 324 329 327 322 322 322 321 322 323 324 326 326 324 324 325 327 326 326 323 321 320 319 316 315 314 320 327 330 334 332 331 327 324 323 323 322
313 313 314 315 319 322 323 326 323 326 326 325 323 321 321 321 321 323 324 323 321 324 326 325 324 322 322 321 320 318 317 319 320 319 319 328 330 335 330 327 326 324 322 322 319
313 313 314 320 321 320 323 321 327 327 326 325 325 324 327 325 325 326 325 324 324 321 322 326 325 323 321 321 322 319 317 319 324 321 321 327 333 332 326 325 324 323 320 318 317
313 319 323 321 322 323 325 322 325 326 324 325 325 323 324 326 326 327 326 327 325 324 324 324 326 323 322 320 320 322 322 317 319 318 324 329 331 327 324 323 321 320 318 317 317
323 324 323 324 322 322 320 323 325 324 322 323 324 324 326 326 329 327 326 325 327 321 323 325 325 323 322 320 319 322 320 322 318 326 326 329 329 328 327 324 322 320 319 318 318
324 325 324 322 322 320 316 321 323 322 323 323 324 326 325 325 327 327 325 326 324 325 322 321 321 323 321 320 320 320 321 319 317 318 322 324 323 325 324 324 324 321 319 318 317
324 321 324 321 321 316 319 322 324 321 322 322 321 323 324 324 326 324 324 324 325 322 322 320 317 320 321 320 320 321 322 318 320 323 321 320 320 319 321 322 322 319 318 318 317
324 325 323 325 320 318 319 321 323 321 324 321 325 322 324 325 325 324 323 327 326 326 324 321 320 321 321 319 318 324 325 321 317 317 322 323 321 320 323 322 321 320 317 313 311
324 319 323 322 320 319 318 320 322 324 325 324 324 323 324 324 323 326 328 327 326 324 323 323 319 319 321 322 320 327 325 324 318 320 322 325 325 322 320 320 319 313 311 310 309
321 319 318 316 318 317 317 319 322 322 325 325 323 323 326 326 324 326 327 325 325 324 321 316 322 323 324 326 326 325 323 321 324 325 324 325 321 320 317 315 314 311 310 309 308
318 319 319 322 321 318 316 320 323 326 325 325 323 322 321 323 322 324 325 323 324 322 320 317 321 323 325 325 324 323 323 323 322 322 320 319 319 312 311 311 310 310 309 308 307
317 320 320 322 320 319 321 321 322 325 326 325 324 322 320 323 323 322 322 321 321 321 320 319 319 319 325 324 323 323 324 322 319 318 319 319 318 313 311 310 309 309 308 308 307
Wind_Speed
6 6 6 6 6 6 7 7 7 8 9 9 10 11 13 14 12 8 3 2 2 4 3 4 4 7 9 3 5 4 4 2 4 5 6 3 5 7 10 18 9 2 10 16 26
5 4 4 4 5 5 5 6 7 7 8 9 10 11 13 14 9 5 5 5 5 2 5 6 9 10 2 3 3 4 3 6 6 5 3 24 15 6 8 14 13 22 21 24 22
4 4 4 4 4 4 5 5 6 7 8 8 9 10 12 13 3 4 7 9 4 6 7 9 11 8 4 1 2 3 4 3 6 6 4 13 28 15 3 9 8 19 22 23 21
5 4 4 4 4 4 5 5 6 7 7 8 8 10 11 6 2 4 9 7 7 7 7 9 10 5 2 2 1 1 7 6 15 19 11 9 14 28 28 14 18 18 20 22 18
6 5 5 4 4 4 5 5 6 6 7 7 8 9 9 4 1 4 8 4 6 6 8 11 8 4 1 3 2 3 9 21 26 45 41 42 31 18 24 25 22 21 19 16 14
7 6 6 6 6 6 6 6 6 6 6 6 8 8 7 3 2 3 5 4 5 7 10 11 6 11 2 3 2 6 26 22 28 32 26 33 27 9 19 23 22 18 14 8 7
7 6 7 7 6 6 6 6 6 5 4 5 7 10 10 4 1 4 6 3 5 8 12 13 14 11 14 5 7 3 8 9 24 1 4 19 23 15 17 21 20 17 15 14 11
7 7 7 7 7 7 6 4 3 2 2 3 6 10 7 5 10 4 2 2 4 7 11 11 11 8 2 7 5 7 6 5 13 9 12 10 10 18 19 19 18 14 13 12 7
7 6 6 7 7 8 8 7 4 2 2 4 7 8 4 8 11 3 5 4 3 5 11 11 2 1 3 4 5 9 4 7 6 24 3 8 11 17 20 22 18 16 16 13 9
8 5 5 5 7 8 10 6 3 4 4 6 5 6 2 13 12 5 6 5 7 11 8 2 3 4 5 5 1 2 7 8 7 9 23 21 17 17 19 21 15 15 15 16 14
8 5 3 4 6 9 12 5 6 2 12 7 10 10 11 12 7 2 3 4 7 5 3 6 7 2 2 4 4 8 11 13 7 3 12 13 14 12 15 19 15 13 13 14 12
7 5 3 4 6 8 11 7 10 6 8 10 10 13 10 9 3 5 2 3 3 3 2 7 5 2 7 9 11 11 14 4 6 10 8 12 12 9 10 11 13 12 11 8 7
7 4 3 6 6 5 6 15 12 8 1 6 3 5 4 5 3 6 3 1 4 6 6 7 4 2 8 4 8 3 6 5 7 10 10 13 6 4 5 9 9 10 7 5 3
8 4 3 4 4 5 4 13 12 7 4 5 2 1 3 1 4 4 2 3 6 4 5 6 6 4 3 4 3 5 7 13 21 5 5 2 3 5 5 2 4 5 4 2 1
8 5 3 3 0 3 8 12 12 6 4 3 2 2 2 2 3 7 3 5 3 2 6 2 2 6 8 3 1 3 14 14 7 3 5 2 4 5 8 5 4 1 3 4 3
9 5 3 4 3 5 8 13 6 5 2 4 2 2 3 5 3 4 4 8 5 7 6 2 2 3 1 3 4 4 5 3 3 3 2 2 4 5 5 5 7 7 7 6 4
8 3 2 2 2 7 10 7 5 3 4 7 2 3 3 4 6 6 5 6 3 3 4 5 4 6 7 5 4 8 6 3 3 4 2 4 3 0 4 7 10 13 13 9 7
4 3 4 4 2 7 8 5 3 3 2 3 4 4 4 4 6 6 3 6 6 5 3 2 5 6 8 3 2 3 4 4 3 2 2 5 2 3 4 3 6 6 7 7 7
5 10 6 3 4 6 3 4 4 2 3 4 3 7 7 5 3 5 4 4 3 4 5 2 2 1 6 6 3 5 4 2 5 1 3 1 2 4 3 2 3 5 5 6 4
8 7 6 6 6 8 4 3 1 3 5 4 4 4 5 7 3 4 5 4 5 10 1 2 3 3 4 8 10 6 1 4 4 3 3 3 4 3 6 6 3 5 7 6 4
3 3 11 6 5 3 3 3 3 6 2 5 2 4 3 3 4 4 5 4 7 6 14 3 3 4 3 6 2 6 4 5 4 3 2 0 4 6 5 4 7 7 4 4 4
3 4 11 3 4 3 1 1 7 4 11 7 5 4 3 5 6 4 3 2 15 4 3 3 4 2 3 3 4 4 2 3 4 4 2 3 4 4 5 5 4 4 4 2 2
3 3 16 3 3 4 5 4 9 7 7 5 5 6 6 4 4 2 3 8 14 6 2 1 4 3 7 5 5 6 4 3 3 3 1 2 4 3 4 6 6 3 5 8 5
3 3 7 14 8 2 4 4 4 10 6 8 4 5 5 7 6 3 2 5 7 6 9 4 4 4 5 5 2 4 5 3 4 3 1 0 4 4 4 4 4 10 10 7 7
5 3 3 3 6 6 2 2 3 4 5 10 6 5 2 3 3 3 3 4 6 8 7 5 4 3 5 4 4 3 4 8 6 2 3 2 2 3 3 3 11 11 8 7 7
4 3 3 3 6 4 7 5 1 3 4 4 7 4 5 4 1 2 2 2 1 7 4 4 2 2 4 3 5 5 3 3 4 2 3 2 2 2 8 13 11 9 8 7 8
7 6 2 7 4 2 2 4 3 2 10 8 6 4 7 0 2 3 2 1 2 3 2 3 4 3 1 1 6 3 2 1 1 1 1 2 2 9 3 7 7 8 7 7 10
Wind_Direction
292 295 292 288 283 283 285 295 300 305 310 317 323 327 327 327 328 322 21 54 24 3 43 40 14 336 306 198 186 172 57 281 232 172 275 106 68 33 85 109 76 72 139 165 160
311 317 311 296 289 291 295 299 301 306 311 319 325 328 330 335 341 58 23 330 305 359 68 20 358 356 80 121 173 103 101 235 209 153 308 56 65 19 74 70 69 87 124 148 159
332 329 324 319 315 306 305 302 304 309 311 321 328 330 335 343 50 47 7 5 101 93 48 10 1 13 62 10 175 162 199 221 327 233 6 103 48 35 62 39 84 124 127 154 168
349 339 335 327 323 320 311 310 309 308 321 326 328 333 336 350 125 358 345 12 97 65 31 9 3 43 56 339 59 287 262 325 354 54 63 62 78 62 60 77 104 112 134 156 161
19 15 7 5 359 345 324 319 320 322 323 322 325 334 346 328 40 357 353 83 88 47 17 9 19 38 292 285 342 193 45 71 83 76 81 81 71 76 65 82 102 107 128 133 131
31 22 19 16 5 347 333 330 322 317 314 316 323 330 328 328 25 308 360 86 36 3 350 358 356 358 262 267 134 19 89 88 73 88 94 84 61 79 59 89 85 101 107 110 94
19 14 19 15 3 347 333 323 309 301 307 316 325 325 307 262 169 294 301 347 5 350 340 342 332 335 318 331 343 69 112 106 25 318 167 100 56 83 78 77 76 78 84 82 65
10 17 24 24 22 18 15 356 328 330 337 339 325 324 283 328 336 358 143 76 13 347 341 333 316 310 312 302 32 50 65 66 12 10 22 104 100 86 83 78 73 76 81 84 80
11 13 14 19 16 17 13 2 9 23 349 321 316 329 309 355 13 120 156 162 285 304 317 295 284 42 348 52 23 18 60 27 23 17 79 77 106 86 85 83 70 71 77 89 92
3 5 1 354 3 2 356 345 324 307 323 323 312 325 345 333 345 325 245 247 282 305 324 7 84 60 29 67 136 94 109 55 69 32 78 84 90 87 85 84 78 73 72 77 80
356 351 346 336 347 3 22 30 356 336 317 274 284 286 304 319 339 8 280 277 275 288 22 7 64 95 186 88 114 79 90 113 134 70 77 97 99 98 96 98 93 85 80 74 77
353 343 311 304 328 17 36 41 12 318 309 308 279 272 297 323 322 33 210 246 41 26 33 26 38 264 119 83 92 105 111 93 57 91 87 102 91 81 85 90 95 82 70 73 71
346 334 287 260 296 13 29 14 6 342 258 301 297 284 291 330 328 351 181 16 82 48 40 95 341 102 96 66 86 103 134 178 136 90 88 125 98 107 97 88 83 87 83 81 80
340 320 290 239 268 343 6 358 351 350 61 291 299 318 253 332 340 4 355 352 39 125 84 70 9 50 77 92 106 60 119 130 139 120 185 172 135 175 159 129 109 96 90 125 186
333 307 282 188 161 357 339 339 342 334 53 288 257 338 254 151 350 18 15 61 57 60 100 163 94 39 52 10 74 94 144 150 156 101 116 154 106 145 164 209 202 157 165 201 216
326 298 266 237 260 327 318 320 314 41 26 353 319 16 35 17 1 1 48 79 62 70 48 38 8 55 288 68 50 113 120 90 94 135 63 190 149 193 184 194 176 182 196 203 186
332 301 249 241 242 321 307 323 41 99 325 330 331 66 101 338 2 33 44 29 52 74 38 15 357 333 33 31 11 51 51 335 352 358 251 313 63 324 177 179 188 191 193 184 184
0 85 105 106 332 335 318 51 80 293 303 354 27 41 72 4 2 18 64 28 9 58 84 113 352 18 327 54 286 58 116 141 274 238 235 354 147 228 166 171 159 176 170 183 195
87 112 96 51 359 5 324 67 190 239 294 6 45 51 350 15 108 77 45 29 17 5 107 113 100 105 52 28 52 326 30 193 114 71 93 266 253 276 159 143 143 177 175 199 203
112 112 44 355 337 351 71 205 234 231 333 62 87 40 38 338 57 71 21 350 342 29 149 113 89 17 14 37 22 82 265 9 11 313 288 247 282 275 217 217 207 217 208 230 251
117 90 7 0 345 5 113 239 296 359 142 59 79 53 65 3 33 43 356 9 11 349 59 38 83 302 64 36 325 352 12 39 110 102 198 268 269 360 13 149 189 216 227 238 241
68 55 5 27 43 40 81 300 344 353 51 61 80 67 55 43 38 67 70 287 337 326 56 349 121 47 91 317 46 68 47 107 112 285 78 148 294 342 11 67 119 85 100 217 196
57 35 31 64 76 347 325 358 42 31 30 36 51 41 52 49 91 64 52 360 29 48 68 101 22 29 349 348 4 43 355 55 100 80 64 60 300 10 43 69 64 112 120 115 96
34 35 32 56 57 77 6 359 55 39 61 59 35 77 61 29 6 108 86 18 40 71 57 97 76 134 192 232 198 25 355 6 86 71 300 24 333 355 8 20 48 111 104 87 77
46 72 38 359 355 5 10 352 49 25 57 35 32 46 100 59 31 59 25 13 46 21 41 79 86 70 35 59 71 80 47 40 60 12 87 304 39 354 349 19 115 118 112 88 46
66 68 74 38 339 6 3 352 103 132 26 18 105 42 77 103 168 117 152 32 3 22 53 21 132 114 35 52 79 74 40 53 36 51 82 57 283 137 108 115 105 96 85 56 17
54 57 65 12 10 55 319 296 334 91 52 78 131 92 57 74 256 330 295 299 26 139 102 68 119 85 226 248 0 3 6 53 64 58 1 279 266 154 108 96 93 94 65 26 9